It's Sunday,
September 22nd, 2019
User not logged in
[Run Race Header Image][Run Race logo]
  
Race webcasting is attempted by race directors and their support staff. Please remember that conditions under which they're working may make it difficult to post timely webcast updates... your interest and patience is appreciated!
Race Information
Race Name:Kettle 100 Endurance Runs - 2017
Location:LaGrange
State:Wisconsin, United States
 button: button: Webcast Autoplay
Event Information
Name of Event:Kettle 100m solo
Distance:100 Miles
Started Date/Time:Saturday June 3rd, 2017, 6:02:18.49 am
button: Assign Numbers 

Event Information
Name of Event:Kettle 100k solo
Distance:100 Kilometers
Started Date/Time:Saturday June 3rd, 2017, 6:02:18.49 am
button: Assign Numbers  
Checkpoint:Bluff Road Outbound 1
Distance:7.6 Miles
Gun Start Time:Saturday June 3rd, 2017 6:02:18.49 am
Calculate Chip Start Time:< not set >
Y or N... Calculate splits based upon participant chip start time?
Allow Early Chip Start Time:< not set >
Y or N... Allow participants a chip start time prior to gun start?
Pos Race
Number
NameAgeSexTimePace 
1487Cory Logsdon29M43:50.75:46.1Sat Jun 3rd, 2017 6:46:09 am
2511Mason Grundy23M43:51.75:46.3Sat Jun 3rd, 2017 6:46:10 am
3425Jordan LaFreniere34M46:30.46:07.2Sat Jun 3rd, 2017 6:48:48 am
4497Jacob Pellmann28M49:52.66:33.8Sat Jun 3rd, 2017 6:52:11 am
5416Walt Jedzejec36M50:26.96:38.3Sat Jun 3rd, 2017 6:52:45 am
6445Chris Farnum20M50:27.86:38.4Sat Jun 3rd, 2017 6:52:46 am
7483Dan Riefenberg35M50:54.96:42.0Sat Jun 3rd, 2017 6:53:13 am
8446PATRICK CAMPBELL57M50:55.06:42.0Sat Jun 3rd, 2017 6:53:13 am
9459Ross Salinas36M51:42.06:48.2Sat Jun 3rd, 2017 6:54:00 am
10470Blake Trotter39M53:02.46:58.7Sat Jun 3rd, 2017 6:55:20 am
11491Andrew Owings41M53:21.87:01.3Sat Jun 3rd, 2017 6:55:40 am
12525Daniel Goeckermann36M53:54.17:05.5Sat Jun 3rd, 2017 6:56:12 am
13486Mika Thewes26F53:55.07:05.7Sat Jun 3rd, 2017 6:56:13 am
14494Frank Alessandrini29M54:40.27:11.6Sat Jun 3rd, 2017 6:56:58 am
15515David Curtin42M56:02.87:22.5Sat Jun 3rd, 2017 6:58:21 am
16520Ray Liberatore29M56:55.67:29.4Sat Jun 3rd, 2017 6:59:14 am
17510Henry Southgate36M56:56.97:29.6Sat Jun 3rd, 2017 6:59:15 am
18492Vikash Malik34M57:19.07:32.5Sat Jun 3rd, 2017 6:59:37 am
19465Phil Strong37M57:20.77:32.7Sat Jun 3rd, 2017 6:59:39 am
20442Colleen MacDonald34F57:33.07:34.3Sat Jun 3rd, 2017 6:59:51 am
21503Yanzi Liu38F57:39.57:35.2Sat Jun 3rd, 2017 6:59:58 am
22499Terry Jarrell56M58:07.17:38.8Sat Jun 3rd, 2017 7:00:25 am
23480Avi Janssen46M58:58.67:45.6Sat Jun 3rd, 2017 7:01:17 am
24518Matthew Condron50M1:00:58.98:01.4Sat Jun 3rd, 2017 7:03:17 am
25468Mark Martinsen53M1:01:46.68:07.7Sat Jun 3rd, 2017 7:04:05 am
26455Heidi Hasapopoulos37F1:02:09.68:10.7Sat Jun 3rd, 2017 7:04:28 am
27490Brad Whitson53M1:02:44.58:15.3Sat Jun 3rd, 2017 7:05:02 am
28496Magdalena Casper-Shipp31F1:03:00.98:17.5Sat Jun 3rd, 2017 7:05:19 am
29460Jeffrey Bruzek42M1:03:27.98:21.0Sat Jun 3rd, 2017 7:05:46 am
30522Michael Younglove57M1:03:50.08:23.9Sat Jun 3rd, 2017 7:06:08 am
31420Ray Johnson38M1:03:55.48:24.7Sat Jun 3rd, 2017 7:06:13 am
32430ronghui wang49M1:03:57.68:24.9Sat Jun 3rd, 2017 7:06:16 am
33436Michael Wingertsahn28M1:04:15.88:27.3Sat Jun 3rd, 2017 7:06:34 am
34493Jason Krezinski44M1:04:44.38:31.1Sat Jun 3rd, 2017 7:07:02 am
35501William Hutchinson47M1:04:48.48:31.6Sat Jun 3rd, 2017 7:07:06 am
36432Rick Sperko46M1:05:09.38:34.4Sat Jun 3rd, 2017 7:07:27 am
37523Paul Shimondle65M1:05:15.88:35.2Sat Jun 3rd, 2017 7:07:34 am
38437Marta Borkowska39F1:06:09.78:42.3Sat Jun 3rd, 2017 7:08:28 am
39467Rob Goeckermann38M1:06:27.98:44.7Sat Jun 3rd, 2017 7:08:46 am
40457Dan McArdle33M1:06:44.98:47.0Sat Jun 3rd, 2017 7:09:03 am
41422Sean Wyatt45M1:07:00.38:49.0Sat Jun 3rd, 2017 7:09:18 am
42495Michael Krattley53M1:07:14.48:50.8Sat Jun 3rd, 2017 7:09:32 am
43419Adam Stoddard44M1:07:25.18:52.3Sat Jun 3rd, 2017 7:09:43 am
44462James Feeny39M1:07:39.68:54.2Sat Jun 3rd, 2017 7:09:58 am
45458Kathy Muehlbauer43F1:07:39.88:54.2Sat Jun 3rd, 2017 7:09:58 am
46475Elizabeth Coll54F1:08:10.08:58.2Sat Jun 3rd, 2017 7:10:28 am
47474Juli Aistars58F1:08:17.88:59.2Sat Jun 3rd, 2017 7:10:36 am
48434Jing Geng51M1:08:20.68:59.6Sat Jun 3rd, 2017 7:10:39 am
49401Thomas Owenby38M1:08:24.79:00.1Sat Jun 3rd, 2017 7:10:43 am
50431Ezequiel Fernandez42M1:09:10.89:06.2Sat Jun 3rd, 2017 7:11:29 am
51505Christopher Tebeau46M1:09:22.19:07.6Sat Jun 3rd, 2017 7:11:40 am
52438Jason Jeffers44M1:10:02.39:12.9Sat Jun 3rd, 2017 7:12:20 am
53498DAVID BITNER40M1:10:07.59:13.6Sat Jun 3rd, 2017 7:12:26 am
54417Dan Hibbard46M1:10:15.59:14.7Sat Jun 3rd, 2017 7:12:34 am
55456Rob Schmitter51M1:10:29.59:16.5Sat Jun 3rd, 2017 7:12:48 am
56453Jaime Hardgrove37F1:10:30.49:16.6Sat Jun 3rd, 2017 7:12:48 am
57526Brandon Becker40M1:10:30.89:16.7Sat Jun 3rd, 2017 7:12:49 am
58452William Jackson54M1:10:58.79:20.4Sat Jun 3rd, 2017 7:13:17 am
59464Stephen Strawn34M1:11:25.19:23.8Sat Jun 3rd, 2017 7:13:43 am
60435Jen Birkner46F1:11:38.79:25.6Sat Jun 3rd, 2017 7:13:57 am
61516Tony Cesario53M1:12:39.69:33.6Sat Jun 3rd, 2017 7:14:58 am
62449Ric Angara46M1:13:09.69:37.6Sat Jun 3rd, 2017 7:15:28 am
63408Lee OKSIUTA36M1:13:16.39:38.5Sat Jun 3rd, 2017 7:15:34 am
64488Lucy Burke42F1:13:42.09:41.8Sat Jun 3rd, 2017 7:16:00 am
65440Andy Nordeen59M1:13:59.19:44.1Sat Jun 3rd, 2017 7:16:17 am
66481Kirsten Pieper46F1:14:18.49:46.6Sat Jun 3rd, 2017 7:16:36 am
67489Jim Street55M1:14:18.99:46.7Sat Jun 3rd, 2017 7:16:37 am
68471Sarah Hauge38F1:14:27.49:47.8Sat Jun 3rd, 2017 7:16:45 am
69519Brenda Bland57F1:15:03.99:52.6Sat Jun 3rd, 2017 7:17:22 am
70423Thomas Hope47M1:15:20.89:54.8Sat Jun 3rd, 2017 7:17:39 am
71426Bob Pilmer59M1:15:45.39:58.1Sat Jun 3rd, 2017 7:18:03 am
72504Josh Stebbins30M1:16:39.910:05.3Sat Jun 3rd, 2017 7:18:58 am
73404Ken Hannah43M1:16:51.610:06.8Sat Jun 3rd, 2017 7:19:10 am
74402jon hendren55M1:16:53.110:07.0Sat Jun 3rd, 2017 7:19:11 am
75400Nicole Pence31F1:16:54.110:07.1Sat Jun 3rd, 2017 7:19:12 am
76461Liz Baumgardt36F1:16:55.510:07.3Sat Jun 3rd, 2017 7:19:13 am
77415Trudi Schoening38F1:17:03.010:08.3Sat Jun 3rd, 2017 7:19:21 am
78405Lauro Perez42M1:17:20.310:10.6Sat Jun 3rd, 2017 7:19:38 am
79500Irene Kok46F1:17:46.310:14.0Sat Jun 3rd, 2017 7:20:04 am
79439Amanda Laughead44F1:17:46.310:14.0Sat Jun 3rd, 2017 7:20:04 am
81514Dennis Strenk45M1:18:28.910:19.6Sat Jun 3rd, 2017 7:20:47 am
82413Katie Zopf38F1:18:31.310:19.9Sat Jun 3rd, 2017 7:20:49 am
83447Andrea Odrzywolski44F1:18:40.010:21.0Sat Jun 3rd, 2017 7:20:58 am
84485Gail Zielinski49F1:18:49.310:22.3Sat Jun 3rd, 2017 7:21:07 am
85479Alex Fox30M1:18:50.410:22.4Sat Jun 3rd, 2017 7:21:08 am
86506jason kumlien47M1:20:12.210:33.2Sat Jun 3rd, 2017 7:22:30 am
87507Tim Hanson46M1:20:14.210:33.5Sat Jun 3rd, 2017 7:22:32 am
88524Robert Fredenhagen26M1:21:00.910:39.6Sat Jun 3rd, 2017 7:23:19 am
89454Richard Albanese44M1:21:37.110:44.3Sat Jun 3rd, 2017 7:23:55 am
90512Steven Nguyen27M1:21:38.410:44.5Sat Jun 3rd, 2017 7:23:56 am
91429Tony Baker49M1:22:02.410:47.7Sat Jun 3rd, 2017 7:24:20 am
92403Tom Burrell46M1:22:06.310:48.2Sat Jun 3rd, 2017 7:24:24 am
93517Andrea Hutchins40F1:22:08.510:48.5Sat Jun 3rd, 2017 7:24:26 am
94441Mark Kaczmarek60M1:22:42.810:53.0Sat Jun 3rd, 2017 7:25:01 am
95450Betsy Rogers53F1:22:56.010:54.7Sat Jun 3rd, 2017 7:25:14 am
96466Tiffany Campbell44F1:23:42.211:00.8Sat Jun 3rd, 2017 7:26:00 am
97477Linda Britz47F1:25:39.311:16.2Sat Jun 3rd, 2017 7:27:57 am
98476Wayne Nelson51M1:25:39.311:16.2Sat Jun 3rd, 2017 7:27:57 am
99411Susan Smock39F1:26:24.811:22.2Sat Jun 3rd, 2017 7:28:43 am
100412Brian Smock50M1:26:27.111:22.5Sat Jun 3rd, 2017 7:28:45 am
101532Nelson Zacarias46M1:27:47.111:33.0Sat Jun 3rd, 2017 7:30:05 am
102473Stephen Bedrin40M1:28:51.011:41.5Sat Jun 3rd, 2017 7:31:09 am
103410Jake Winder29M1:29:21.711:45.5Sat Jun 3rd, 2017 7:31:40 am
104508Gladys Najar49F1:34:58.912:29.9Sat Jun 3rd, 2017 7:37:17 am

Event Information
Name of Event:Kettle 100 relay
Distance:100 Miles
Started Date/Time:Saturday June 3rd, 2017, 6:02:18.49 am
button: Assign Numbers 

Event Information
Name of Event:Kettle 50 km solo
Distance:50 Kilometers
Started Date/Time:Saturday June 3rd, 2017, 1:00:00.49 pm
button: Assign Numbers 

Event Information
Name of Event:Kettle 38 night fun run
Distance:38 Miles
Started Date/Time:Saturday June 3rd, 2017, 5:23:22.00 pm
button: Assign Numbers 
2004-2019 : All rights reserved
Terms and Conditions